Afton, Prince Edward Island

2:56 AM ADT on July 21, 2017 (GMT -0300)
Afton

Weather History for 71706 - November, 2012

Change the Weather History Date:

Sunday, November 11, 2012

  Actual Average Record
Temperature  
Mean Temperature 33 °F -  
Max Temperature 39 °F 39 °F - ()
Min Temperature 27 °F 25 °F - ()
Degree Days  
Heating Degree Days 32    
Moisture  
Dew Point 23 °F    
Average Humidity 64    
Maximum Humidity 80    
Minimum Humidity 45    
Precipitation  
Precipitation 0.00 in 0.17 in - ()
Sea Level Pressure  
Sea Level Pressure 30.47 in    
Wind  
Wind Speed 8 mph ()    
Max Wind Speed 14 mph    
Max Gust Speed 20 mph    
Visibility 15.0 miles    
Events      
T = Trace of Precipitation, MM = Missing Value Source: Averaged Metar Reports

Daily Weather History Graph

Daily Weather History Graph

Search for Another Location

Airport or City:

Trip Planner

Search our weather history database for the weather conditions in past years. The results will help you decide how hot, cold, wet, or windy it might be!

Date:

Astronomy

Nov. 11, 2012 Rise Set
Actual Time 7:08 AM AST 4:43 PM AST
Civil Twilight 6:36 AM AST 5:16 PM AST
Nautical Twilight 6:00 AM AST 5:52 PM AST
Astronomical Twilight 5:24 AM AST 6:27 PM AST
Moon 4:09 AM AST (11/11) 3:10 PM AST (11/11)
Length of Visible Light 10h 39m
Length of Day
9h 35m
Waning Crescent, 7% of the Moon is Illuminated
Nov 11
Waning Crescent
Nov 13
New
Nov 20
First Quarter
Nov 28
Full
Dec 6
Last Quarter

Hourly Weather History & Observations

Time (AST) Temp. Windchill Dew Point Humidity Pressure Visibility Wind Dir Wind Speed Gust Speed Precip Events Conditions
12:00 AM 32.0 °F 24.8 °F 21.2 °F 64% 30.32 in 15.0 mi West 8.1 mph - N/A   Partly Cloudy
1:00 AM 30.2 °F 21.9 °F 21.2 °F 69% 30.33 in 15.0 mi West 9.2 mph - N/A   Partly Cloudy
2:00 AM 30 °F - 21 °F 60% 30.35 in 15 mi West 11.5 mph - -   Scattered Clouds
2:00 AM 30.2 °F 20.8 °F 21.2 °F 69% 30.35 in 15.0 mi West 11.5 mph - N/A   Partly Cloudy
3:00 AM 30.2 °F 21.3 °F 21.2 °F 69% 30.36 in 15.0 mi WNW 10.4 mph 19.6 mph N/A   Partly Cloudy
4:00 AM 30.2 °F 19.8 °F 21.2 °F 69% 30.35 in 15.0 mi WNW 13.8 mph - N/A   Partly Cloudy
5:00 AM 30.2 °F 22.6 °F 23.0 °F 75% 30.40 in 15.0 mi West 8.1 mph - N/A   Partly Cloudy
6:00 AM 28.4 °F 21.2 °F 21.2 °F 74% 30.42 in 15.0 mi West 6.9 mph - N/A   Partly Cloudy
7:00 AM 28.4 °F 23.3 °F 21.2 °F 74% 30.45 in 15.0 mi WSW 4.6 mph - N/A   Partly Cloudy
8:00 AM 29 °F - 23 °F 71% 30.48 in 15 mi West 8.1 mph - -   Scattered Clouds
8:00 AM 28.4 °F 19.7 °F 23.0 °F 80% 30.48 in 15.0 mi WSW 9.2 mph - N/A   Scattered Clouds
9:00 AM 32.0 °F 23.0 °F 24.8 °F 75% 30.49 in 15.0 mi West 11.5 mph - N/A   Mostly Cloudy
10:00 AM 33.8 °F 24.3 °F 24.8 °F 70% 30.49 in 15.0 mi West 13.8 mph - N/A   Mostly Cloudy
11:00 AM 35.6 °F 26.6 °F 23.0 °F 60% 30.48 in 15.0 mi WSW 13.8 mph - N/A   Mostly Cloudy
12:00 PM 37.4 °F 30.3 °F 23.0 °F 56% 30.47 in 15.0 mi West 10.4 mph - N/A   Mostly Cloudy
2:00 PM 36 °F - 23 °F 48% 30.50 in 15 mi West 9.2 mph - -   Mostly Cloudy
2:00 PM 35.6 °F 28.6 °F 23.0 °F 60% 30.50 in 15.0 mi West 9.2 mph - N/A   Mostly Cloudy
3:00 PM 35.6 °F 29.2 °F 23.0 °F 60% 30.51 in 15.0 mi West 8.1 mph - N/A   Mostly Cloudy
4:00 PM 35.6 °F 30.7 °F 23.0 °F 60% 30.51 in 15.0 mi West 5.8 mph - N/A   Mostly Cloudy
5:00 PM 35.6 °F - 24.8 °F 65% 30.51 in 15.0 mi SW 2.3 mph - N/A   Overcast
6:00 PM 37.4 °F 32.1 °F 24.8 °F 60% 30.53 in 15.0 mi WSW 6.9 mph - N/A   Overcast
7:00 PM 37.4 °F 32.1 °F 23.0 °F 56% 30.54 in 15.0 mi WSW 6.9 mph - N/A   Overcast
8:00 PM 37 °F - 23 °F 45% 30.56 in 15 mi WSW 6.9 mph - -   Overcast
8:00 PM 37.4 °F 30.8 °F 23.0 °F 56% 30.56 in 15.0 mi WSW 9.2 mph - N/A   Overcast
9:00 PM 37.4 °F 32.8 °F 23.0 °F 56% 30.57 in 15.0 mi WSW 5.8 mph - N/A   Overcast
10:00 PM 37.4 °F 33.8 °F 24.8 °F 60% 30.57 in 15.0 mi SW 4.6 mph - N/A   Overcast
11:00 PM 39.2 °F - 26.6 °F 61% 30.56 in 15.0 mi Calm Calm - N/A   Overcast